STARLINK-32796, 62739

Orbit data source: Space-Track

STARLINK-32796, 62739 is a payload satellite owned by SpaceX/Seattle (US) in LEO that was launched on Tue, 21 Jan 2025 UTC via an FALCON 9 launch vehicle from the Air Force Eastern Test Range (AFETR). Payload-class satellites include a variety of spacecraft equipped with specific instruments for various scientific and technological missions. These include communications satellites like Starlink; space stations such as the ISS; scientific satellites like the Hubble; Earth observation satellites from companies like Planet Labs, Umbra, and HawkEye 360; GPS; miniature CubeSats for education and research; and military/defense satellites.

Loading next visibility...
Identifier
62739, 2025-014E
Orbit
LEO
Country
Flag of USUS
Related business
Manufacturer
SpaceX/Seattle
Mission
Operational Commercial Communications
Bus & Motor
STARLINK V2M, Unknown motor
Mass
730 kg wet, ~700 kg dry
Launch date (UTC)
2025-01-21 (1 year ago)
Launch vehicle
FALCON 9
Launch site
Air Force Eastern Test Range (AFETR)
Object type
Payload
Rocket body
Debris
Shape & HBR
Box + 2 Pan, 17.7 m
Radar Cross Section
33.884 m², Large (>1 m²)

Expand to show TLE details & history
Last TLE update: 12 hours ago

TLE from 12 hours ago
0 STARLINK-32796
1 62739U 25014E   26171.35854868  .00019132  00000-0  70287-3 0  9996
2 62739  42.9969 294.1918 0001037 263.0440  97.0294 15.27583002 78966
Epoch: 2026-06-20T08:36Z
TLE epoch observation values (Epoch: 2026-06-20T08:36:18.605Z)
Latitude
-0.00001°
Longitude
-103.46005°
Altitude
482.902 km
Speed
7.626 km/s
True Right ascension
19h 36m 46s
True Declination
0° 00' 00"
Sunlit
Object was in full shadow at epoch
Visualization orbit readout
Latitude
Unknown
Longitude
Unknown
Altitude
Unknown
Speed
Unknown
Apparent Right ascension
Unknown
Apparent Declination
Unknown
Sunlit
N/A
Visualization observer readout
Local Sidereal Time
07:23:34
Azimuth
Unknown
Elevation
Unknown
Doppler factor
Unknown
Orbital elements
Apogee altitude
485.698 km
Perigee altitude
484.274 km
Semi-major axis
6,863.123 km
Eccentricity
0.0001
Inclination
42.9969°
RAAN
294.1918°
Arg. of periapsis
263.044°
True anomaly
97.04119°
Mean anomaly
97.0294°
Eccentric anomaly
97.0353°
Mean motion
3.81734 °/min
Orbital period
94.31 mins
BSTAR
0.00070287
Loading maneuver chart data...
Computing Atmospheric mass density...
Loading historical data...
Loading historical data...
Loading historical data...
Loading historical data...
Loading historical data...
Loading historical data...
Loading historical data...

Documentation

Showing up to 5 results
|